FW9437 Weather Reports


Display with metric or nautical units.
time (UTC)temp
F
wind
direction
speed
MPH
gust
MPH
rain 1hr
in
rain 24hr
in
rain mn
in
humidity
%
barometer
mb
20260504180052 82 44 1.0 7.0 0.00 0.00 0.00 43 1012.4
20260504174604 81 150 2.0 8.0 0.00 0.00 0.00 43 1012.5
20260504173103 82 310 1.0 5.0 0.00 0.00 0.00 47 1012.5
20260504171558 81 56 1.0 4.0 0.00 0.00 0.00 46 1012.8
20260504081555 59 271 0.0 6.0 0.00 0.00 0.00 65 1013.9
20260504044603 57 0 0.0 2.0 0.00 0.00 0.00 66 1015.4
20260504043055 55 0 0.0 1.0 0.00 0.00 0.00 71 1015.6
20260504041556 54 0 0.0 1.0 0.00 0.00 0.00 71 1015.7
20260504040103 54 0 0.0 0.0 0.00 0.00 0.00 71 1015.8
20260504034600 55 0 0.0 1.0 0.00 0.00 0.00 70 1015.8
20260504033128 55 0 0.0 0.0 0.00 0.00 0.00 69 1015.9
20260504031558 57 0 0.0 1.0 0.00 0.00 0.00 65 1016.0
20260504030105 58 0 0.0 1.0 0.00 0.00 0.00 63 1016.0
20260504024557 59 0 0.0 1.0 0.00 0.00 0.00 60 1015.8
20260504023104 59 209 0.0 1.0 0.00 0.00 0.00 60 1015.7
20260504021559 60 0 0.0 1.0 0.00 0.00 0.00 60 1015.7
20260504020101 59 296 0.0 1.0 0.00 0.00 0.00 62 1015.6
20260504014559 58 0 0.0 0.0 0.00 0.00 0.00 65 1015.4
20260504013109 58 0 0.0 0.0 0.00 0.00 0.00 64 1015.5
20260504011556 59 0 0.0 1.0 0.00 0.00 0.00 60 1015.6
20260504010112 62 0 0.0 1.0 0.00 0.00 0.00 55 1015.7
20260504004627 63 0 0.0 1.0 0.00 0.00 0.00 51 1015.5
20260504003058 65 0 0.0 0.0 0.00 0.00 0.00 48 1015.7
20260504001601 66 0 0.0 2.0 0.00 0.00 0.00 46 1015.7
20260504000055 67 181 0.0 3.0 0.00 0.00 0.00 44 1015.8
20260503234554 68 172 2.0 5.0 0.00 0.00 0.00 42 1016.1
20260503233059 69 134 1.0 8.0 0.00 0.00 0.00 41 1016.1
20260503231557 69 150 0.0 5.0 0.00 0.00 0.00 42 1016.2
20260503230100 69 123 0.0 9.0 0.00 0.00 0.00 40 1016.4
20260503224554 70 109 1.0 5.0 0.00 0.00 0.00 39 1016.4
20260503223100 71 143 1.0 5.0 0.00 0.00 0.00 38 1016.5
20260503221555 72 187 2.0 9.0 0.00 0.00 0.00 36 1016.6
20260503220054 73 138 1.0 7.0 0.00 0.00 0.00 37 1016.7
20260503214553 74 330 2.0 5.0 0.00 0.00 0.00 36 1017.1
20260503213107 74 200 0.0 5.0 0.00 0.00 0.00 37 1017.4
20260503211554 74 122 1.0 4.0 0.00 0.00 0.00 36 1017.5
20260503210109 73 0 1.0 4.0 0.00 0.00 0.00 36 1017.9
20260503204600 73 291 0.0 5.0 0.00 0.00 0.00 40 1018.2
20260503203103 73 295 1.0 6.0 0.00 0.00 0.00 37 1018.6
20260503201603 71 134 2.0 5.0 0.00 0.00 0.00 40 1018.8
20260503200101 73 0 1.0 3.0 0.00 0.00 0.00 39 1019.3
20260503194608 71 236 1.0 7.0 0.00 0.00 0.00 40 1019.6
20260503193102 72 290 1.0 7.0 0.00 0.00 0.00 41 1019.7
20260503191631 71 211 2.0 7.0 0.00 0.00 0.00 36 1019.9
20260503190057 71 194 1.0 5.0 0.00 0.00 0.00 40 1020.1
20260503184601 70 172 2.0 4.0 0.00 0.00 0.00 44 1020.2
20260503183113 71 264 1.0 3.0 0.00 0.00 0.00 44 1020.4
20260503181559 69 1 2.0 6.0 0.00 0.00 0.00 43 1020.6